Date String (YYYY-MM-DD hh:mm:ss) UTC,Instrument flags,Ambient pressure (hPa),Sample flow (lpm),Bypass flow (lpm),Sample temperature (°C),Ambient temperature (°C),ASC tube jacket temperature (°C),LED temperature (°C),Box temperature (°C),Sample RH (%),Span deviation,Mass concentration (μg/m³),Mass concentration (μg/m³),Mass concentration (μg/m³)
DateTimeUTC,F1_M11,P_M11,Q1_M11,Q2_M11,T1_M11,T2_M11,T3_M11,T4_M11,T5_M11,U1_M11,ZSPAN_M11,X0_M11,X2_M11,X1_M11
2023-01-12 07:00:00,,0829.9,5.00,0.00,22.6,22.9,00.0,31.3,24.6,18.6,-002.4,0021.13,0014.53,0013.77
2023-01-12 07:01:00,,0829.8,4.98,0.00,22.6,22.5,00.0,31.3,24.6,18.4,-002.4,0020.84,0014.41,0013.69
2023-01-12 07:02:00,,0829.8,5.00,0.00,22.6,22.1,00.0,31.3,24.5,18.4,-002.5,0020.21,0014.15,0013.46
2023-01-12 07:03:00,,0829.8,5.01,0.00,22.6,21.8,00.0,31.4,24.4,18.3,-002.6,0019.98,0014.06,0013.40
2023-01-12 07:04:00,,0829.8,5.01,0.00,22.6,21.6,00.0,31.4,24.4,18.2,-002.6,0020.14,0014.17,0013.49
2023-01-12 07:05:00,,0829.9,5.00,0.00,22.6,21.5,00.0,31.4,24.4,18.3,-002.6,0020.48,0014.50,0013.84
2023-01-12 07:06:00,,0829.9,4.99,0.00,22.6,21.4,00.0,31.4,24.3,18.3,-002.4,0021.13,0014.93,0014.24
2023-01-12 07:07:00,,0829.9,4.99,0.00,22.5,21.3,00.0,31.4,24.3,18.4,-002.3,0021.27,0015.08,0014.40
2023-01-12 07:08:00,,0829.9,5.00,0.00,22.5,21.2,00.0,31.4,24.3,18.4,-002.3,0021.41,0015.16,0014.46
2023-01-12 07:09:00,,0829.9,5.00,0.00,22.5,21.2,00.0,31.4,24.3,18.4,-002.2,0021.81,0015.20,0014.50
2023-01-12 07:10:00,,0829.9,5.01,0.00,22.5,21.1,00.0,31.4,24.2,18.4,-002.1,0021.78,0015.14,0014.45
2023-01-12 07:11:00,,0829.9,5.00,0.00,22.5,21.1,00.0,31.4,24.2,18.4,-001.9,0021.59,0015.02,0014.34
2023-01-12 07:12:00,,0829.9,5.00,0.00,22.5,21.1,00.0,31.4,24.2,18.5,-001.9,0021.57,0015.04,0014.34
2023-01-12 07:13:00,,0829.9,5.00,0.00,22.4,21.0,00.0,31.4,24.2,18.5,-002.0,0022.12,0015.21,0014.51
2023-01-12 07:14:00,,0829.8,5.00,0.00,22.4,21.0,00.0,31.4,24.2,18.6,-002.0,0023.09,0015.28,0014.58
2023-01-12 07:15:00,,0829.8,4.99,0.00,22.4,20.9,00.0,31.4,24.1,18.6,-002.0,0024.03,0015.44,0014.76
2023-01-12 07:16:00,,0829.9,5.00,0.00,22.4,21.0,00.0,31.4,24.1,18.6,-001.9,0024.18,0015.38,0014.70
2023-01-12 07:17:00,,0829.8,5.00,0.00,22.4,21.0,00.0,31.4,24.1,18.6,-002.0,0024.40,0015.29,0014.57
2023-01-12 07:18:00,,0829.9,5.01,0.00,22.4,21.0,00.0,31.3,24.1,18.6,-002.0,0024.24,0015.15,0014.43
2023-01-12 07:19:00,,0829.9,5.00,0.00,22.4,20.9,00.0,31.3,24.1,18.9,-002.1,0024.26,0015.02,0014.28
2023-01-12 07:20:00,,0829.9,5.00,0.00,22.3,20.9,00.0,31.3,24.1,18.7,-002.0,0024.36,0014.86,0014.13
2023-01-12 07:21:00,,0829.8,5.00,0.00,22.3,20.9,00.0,31.3,24.1,18.7,-001.9,0023.97,0014.74,0014.00
2023-01-12 07:22:00,,0829.9,5.00,0.00,22.3,20.9,00.0,31.3,24.1,18.6,-002.0,0023.84,0014.65,0013.90
2023-01-12 07:23:00,,0829.9,4.99,0.00,22.3,20.8,00.0,31.3,24.1,18.6,-001.9,0023.63,0014.50,0013.77
2023-01-12 07:24:00,,0830.0,5.01,0.00,22.3,20.8,00.0,31.3,24.0,18.6,-002.0,0023.19,0014.33,0013.58
2023-01-12 07:25:00,,0830.0,5.01,0.00,22.3,20.8,00.0,31.3,24.0,18.5,-002.0,0022.24,0014.20,0013.42
2023-01-12 07:26:00,,0830.0,5.01,0.00,22.3,21.3,00.0,31.2,24.1,18.5,-001.9,0021.24,0014.02,0013.25
2023-01-12 07:27:00,,0830.1,5.00,0.00,22.4,22.2,00.0,31.2,24.4,18.3,-001.9,0020.61,0013.80,0013.05
2023-01-12 07:28:00,,0830.1,5.00,0.00,22.5,22.9,00.0,31.2,24.6,18.2,-002.0,0019.93,0013.54,0012.84
2023-01-12 07:29:00,,0830.1,5.00,0.00,22.6,22.7,00.0,31.3,24.6,18.1,-001.9,0019.68,0013.36,0012.66
2023-01-12 07:30:00,,0830.1,4.99,0.00,22.6,22.3,00.0,31.3,24.6,18.1,-002.0,0019.22,0013.19,0012.55
2023-01-12 07:31:00,,0830.0,5.00,0.00,22.6,22.0,00.0,31.3,24.5,18.0,-002.1,0018.36,0013.02,0012.42
2023-01-12 07:32:00,,0830.1,4.99,0.00,22.6,21.7,00.0,31.4,24.4,18.0,-002.1,0017.84,0012.76,0012.24
2023-01-12 07:33:00,,0830.1,5.00,0.00,22.6,21.5,00.0,31.4,24.4,18.0,-002.3,0017.38,0012.47,0011.99
2023-01-12 07:34:00,,0830.1,4.99,0.00,22.6,21.4,00.0,31.4,24.3,18.0,-002.6,0017.00,0012.25,0011.81
2023-01-12 07:35:00,,0830.1,5.01,0.00,22.6,21.3,00.0,31.4,24.3,18.0,-002.4,0016.59,0012.03,0011.63
2023-01-12 07:36:00,,0830.1,5.00,0.00,22.5,21.2,00.0,31.4,24.3,18.0,-002.4,0016.09,0011.80,0011.46
2023-01-12 07:37:00,,0830.0,4.99,0.00,22.5,21.1,00.0,31.4,24.3,18.0,-002.3,0015.83,0011.62,0011.30
2023-01-12 07:38:00,,0830.0,5.00,0.00,22.5,21.1,00.0,31.4,24.2,18.1,-002.2,0015.58,0011.49,0011.21
2023-01-12 07:39:00,,0830.0,5.01,0.00,22.5,21.0,00.0,31.4,24.2,18.1,-002.1,0015.44,0011.40,0011.12
2023-01-12 07:40:00,,0829.9,5.01,0.00,22.5,21.0,00.0,31.4,24.2,18.0,-002.2,0015.25,0011.29,0011.04
2023-01-12 07:41:00,,0830.0,5.00,0.00,22.4,21.0,00.0,31.4,24.2,18.0,-002.2,0015.03,0011.14,0010.89
2023-01-12 07:42:00,,0830.0,4.99,0.00,22.4,20.9,00.0,31.4,24.2,18.0,-002.2,0014.85,0011.01,0010.77
2023-01-12 07:43:00,,0830.1,5.00,0.00,22.4,20.9,00.0,31.4,24.1,18.0,-002.3,0014.68,0010.89,0010.66
2023-01-12 07:44:00,,0830.1,5.00,0.00,22.4,20.9,00.0,31.4,24.1,18.0,-002.2,0014.56,0010.84,0010.62
2023-01-12 07:45:00,,0830.1,4.99,0.00,22.4,20.9,00.0,31.3,24.1,18.0,-002.1,0014.42,0010.73,0010.51
2023-01-12 07:46:00,,0830.1,4.99,0.00,22.4,20.8,00.0,31.3,24.1,18.0,-002.0,0014.35,0010.66,0010.43
2023-01-12 07:47:00,,0830.1,4.99,0.00,22.3,20.8,00.0,31.3,24.1,18.0,-002.0,0014.28,0010.60,0010.37
2023-01-12 07:48:00,,0830.1,5.01,0.00,22.3,20.8,00.0,31.3,24.0,18.0,-002.1,0014.16,0010.52,0010.30
2023-01-12 07:49:00,,0830.1,5.00,0.00,22.3,20.8,00.0,31.3,24.0,18.0,-002.3,0014.11,0010.47,0010.25
2023-01-12 07:50:00,,0830.1,5.00,0.00,22.3,20.8,00.0,31.3,24.0,18.0,-002.4,0013.97,0010.39,0010.18
2023-01-12 07:51:00,,0830.1,5.00,0.00,22.3,20.9,00.0,31.2,24.0,18.0,-002.4,0013.77,0010.26,0010.07
2023-01-12 07:52:00,,0830.1,5.00,0.00,22.3,21.7,00.0,31.2,24.2,18.0,-002.3,0013.63,0010.16,0009.98
2023-01-12 07:53:00,,0830.1,4.99,0.00,22.4,22.6,00.0,31.2,24.4,17.9,-002.3,0013.57,0010.10,0009.90
2023-01-12 07:54:00,,0830.1,4.99,0.00,22.6,22.8,00.0,31.3,24.6,17.8,-002.3,0013.45,0010.01,0009.82
2023-01-12 07:55:00,,0830.1,5.00,0.00,22.6,22.4,00.0,31.3,24.5,17.7,-002.2,0013.33,0009.91,0009.70
2023-01-12 07:56:00,,0830.1,5.01,0.00,22.6,22.1,00.0,31.3,24.5,17.7,-002.2,0013.28,0009.88,0009.66
2023-01-12 07:57:00,,0830.1,4.99,0.00,22.6,21.8,00.0,31.4,24.4,17.7,-002.1,0013.22,0009.81,0009.60
2023-01-12 07:58:00,,0830.1,5.00,0.00,22.6,21.6,00.0,31.4,24.4,17.7,-002.1,0013.10,0009.73,0009.53
2023-01-12 07:59:00,,0830.1,5.00,0.00,22.6,21.4,00.0,31.4,24.3,17.7,-002.1,0013.02,0009.69,0009.49
